Location: Newark
(40.7360°N, 74.1730°W)
Time: 01:56:17
(UTC-04:00)

Amateur Radio Satellites - All Passes

Search period start: 20 September 2014 01:26
Search period end: 21 September 2014 01:26
Location: Newark, 40.7360°N, 74.1730°W

Satellite Date Start Highest point End Downlink Frequencies (MHz)
Time Altitude Azimuth
Oscar 19 20 Sep 01:28:49 01:32:20 18° 92° (E) 01:35:50 437.125 CW, 437.150 USB
ISS 20 Sep 01:40:04 01:41:51 14° 130° (SE) 01:43:37 145.800 FM
AO-27 20 Sep 01:49:00 01:50:41 11° 89° (E) 01:52:21 436.795 MHz FM
JAS-1B 20 Sep 01:53:31 01:56:55 16° 91° (E) 02:00:19 435.800 - 435.900 CW/SSB
Oscar 16 20 Sep 02:06:37 02:11:34 43° 99° (E) 02:16:27 437.025 USB, Beacon 2401.1428
AO-Echo 20 Sep 02:17:43 02:21:47 26° 96° (E) 02:25:55 ?
PANSAT 20 Sep 02:20:33 02:21:53 12° 172° (S) 02:23:14 not established
KITSAT 1 20 Sep 02:33:55 02:39:31 20° 32° (NNE) 02:45:05 435.175 FM
Saudisat 1A 20 Sep 02:35:26 02:39:48 61° 241° (WSW) 02:44:08 436.775 MHz
Gurwin Techsat 1B 20 Sep 02:41:34 02:45:13 19° 92° (E) 02:48:50 435.225 FM
Oscar 10/S400 20 Sep 02:50:15 03:59:33 29° 240° (WSW) 07:27:00 145.825 - 145.975 CW/USB, Beacon 145.810 USB
ITAMSAT 1 20 Sep 02:50:34 02:55:35 46° 99° (E) 03:00:35 435.822 SSB
Uribyol 2 20 Sep 02:54:38 02:59:46 54° 101° (E) 03:04:52 436.500 FM
Oscar 19 20 Sep 03:06:58 03:11:59 52° 288° (WNW) 03:16:57 437.125 CW, 437.150 USB
ISS 20 Sep 03:14:53 03:18:11 66° 326° (NW) 03:21:30 145.800 FM
RS-15 20 Sep 03:15:16 03:24:27 32° 105° (ESE) 03:33:29 29.354 - 29.394 USB, Beacon 29.352 USB
TMSAT-1 20 Sep 03:17:40 03:22:17 30° 96° (E) 03:26:52 436.925 FM
AO-27 20 Sep 03:25:33 03:30:47 82° 285° (WNW) 03:36:00 436.795 MHz FM
OPAL 20 Sep 03:36:54 03:40:44 21° 61° (ENE) 03:44:35 ?
JAS-1B 20 Sep 03:42:31 03:48:11 60° 289° (WNW) 03:53:47 435.800 - 435.900 CW/SSB
Oscar 16 20 Sep 03:46:36 03:50:38 23° 295° (WNW) 03:54:38 437.025 USB, Beacon 2401.1428
AO-Echo 20 Sep 03:56:13 04:00:34 34° 291° (WNW) 04:05:01 ?
PANSAT 20 Sep 03:59:36 04:01:18 13° 185° (S) 04:03:00 not established
Gurwin Techsat 1B 20 Sep 04:20:19 04:25:30 54° 288° (WNW) 04:30:39 435.225 FM
KITSAT 1 20 Sep 04:28:30 04:36:34 67° 56° (NE) 04:44:35 435.175 FM
AO-7 20 Sep 04:30:41 04:38:05 35° 97° (E) 04:45:25 29.400 - 29.500 MHz
ITAMSAT 1 20 Sep 04:30:47 04:34:45 23° 296° (WNW) 04:38:43 435.822 SSB
Uribyol 2 20 Sep 04:35:08 04:38:48 20° 297° (WNW) 04:42:28 436.500 FM
ISS 20 Sep 04:53:06 04:55:24 17° 344° (NNW) 04:57:41 145.800 FM
TMSAT-1 20 Sep 04:57:26 05:02:11 34° 292° (WNW) 05:06:55 436.925 FM
Uosat F 20 Sep 05:06:14 05:11:09 53° 101° (E) 05:16:03 435.120 FM
AO-27 20 Sep 05:08:09 05:09:27 11° 302° (WNW) 05:10:44 436.795 MHz FM
OPAL 20 Sep 05:14:12 05:19:13 51° 258° (WSW) 05:24:19 ?
RS-15 20 Sep 05:24:51 05:35:52 71° 306° (NW) 05:46:48 29.354 - 29.394 USB, Beacon 29.352 USB
JAS-2 20 Sep 05:44:04 05:48:56 24° 95° (E) 05:54:13 435.800 - 435.900 CW/SSB, 435.910 FM
STRAND 1 20 Sep 05:56:54 06:00:58 25° 65° (ENE) 06:05:04 ?
Hamsat 20 Sep 05:57:52 06:00:56 19° 93° (E) 06:03:57 145.90 MHz
AO-7 20 Sep 06:23:08 06:31:04 53° 296° (WNW) 06:39:00 29.400 - 29.500 MHz
KITSAT 1 20 Sep 06:24:53 06:31:18 27° 255° (WSW) 06:37:42 435.175 FM
ISS 20 Sep 06:31:29 06:33:09 13° 5° (N) 06:34:48 145.800 FM
SO-50 20 Sep 06:33:18 06:37:38 33° 49° (NE) 06:42:00 436.795 FM
Uosat F 20 Sep 06:46:05 06:49:31 19° 297° (WNW) 06:52:57 435.120 FM
SO-67 20 Sep 07:09:01 07:10:50 14° 92° (E) 07:12:39 435.3500 MHz FM
JAS-2 20 Sep 07:28:18 07:34:11 56° 288° (WNW) 07:40:49 435.800 - 435.900 CW/SSB, 435.910 FM
Hamsat 20 Sep 07:33:07 07:36:59 34° 289° (WNW) 07:40:48 145.90 MHz
STRAND 1 20 Sep 07:35:12 07:39:56 39° 262° (W) 07:44:43 ?
RS-15 20 Sep 07:41:56 07:50:37 26° 335° (NNW) 07:59:22 29.354 - 29.394 USB, Beacon 29.352 USB
ISS 20 Sep 08:07:48 08:10:43 27° 25° (NNE) 08:13:37 145.800 FM
UOSAT-12 20 Sep 08:08:36 08:12:34 26° 46° (NE) 08:16:30 437.025 FM, 437.400 FM
SO-50 20 Sep 08:13:52 08:18:11 33° 246° (WSW) 08:22:31 436.795 FM
AO-7 20 Sep 08:19:21 08:21:58 12° 317° (NW) 08:24:35 29.400 - 29.500 MHz
MaSat-1 20 Sep 08:26:36 08:31:36 74° 113° (ESE) 08:36:32 437.345 MHz
HO-68 20 Sep 08:35:49 08:40:07 17° 90° (E) 08:44:23 435.675 MHz FM
SO-67 20 Sep 08:40:52 08:43:57 31° 288° (WNW) 08:47:02 435.3500 MHz FM
UKube-1 20 Sep 09:26:38 09:28:59 14° 92° (E) 09:31:19 145.840 MHz, 145.915 MHz
ISS 20 Sep 09:44:21 09:47:31 43° 222° (SW) 09:50:41 145.800 FM
UOSAT-12 20 Sep 09:48:26 09:52:52 42° 244° (WSW) 09:57:14 437.025 FM, 437.400 FM
RS-15 20 Sep 10:00:43 10:08:22 20° 11° (N) 10:16:07 29.354 - 29.394 USB, Beacon 29.352 USB
MaSat-1 20 Sep 10:05:38 10:08:50 17° 310° (NW) 10:12:00 437.345 MHz
HO-68 20 Sep 10:21:24 10:28:37 86° 287° (WNW) 10:35:48 435.675 MHz FM
FUNcube-1 20 Sep 10:35:42 10:39:37 27° 95° (E) 10:43:28 145.950 - 145.970 MHz USB
Oscar 11 20 Sep 10:43:42 10:48:05 79° 102° (ESE) 10:52:24 145.825 FM, Beacon 2401.500 USB
UKube-1 20 Sep 11:01:14 11:05:27 50° 288° (WNW) 11:09:40 145.840 MHz, 145.915 MHz
Sapphire 20 Sep 11:10:24 11:13:53 18° 105° (ESE) 11:17:23 437.095 MHz 1200 baud AX-25 AFSK
PCSat 20 Sep 11:35:48 11:40:34 33° 110° (ESE) 11:45:21 145.825 MHz
HO-68 20 Sep 12:10:57 12:15:18 17° 306° (NW) 12:19:39 435.675 MHz FM
FUNcube-1 20 Sep 12:11:56 12:15:58 30° 291° (WNW) 12:19:56 145.950 - 145.970 MHz USB
RS-15 20 Sep 12:14:14 12:24:42 44° 43° (NE) 12:35:29 29.354 - 29.394 USB, Beacon 29.352 USB
Oscar 11 20 Sep 12:23:09 12:23:36 10° 299° (WNW) 12:24:02 145.825 FM, Beacon 2401.500 USB
JAS-1B 20 Sep 12:37:33 12:43:23 22° 61° (ENE) 12:48:35 435.800 - 435.900 CW/SSB
Uribyol 2 20 Sep 12:38:00 12:38:49 10° 57° (ENE) 12:39:37 436.500 FM
Oscar 19 20 Sep 12:45:14 12:49:31 27° 66° (ENE) 12:53:50 437.125 CW, 437.150 USB
Sapphire 20 Sep 12:51:24 12:56:45 63° 302° (WNW) 13:02:09 437.095 MHz 1200 baud AX-25 AFSK
AO-27 20 Sep 13:06:07 13:09:39 19° 63° (ENE) 13:13:12 436.795 MHz FM
PCSat 20 Sep 13:18:56 13:23:54 36° 307° (NW) 13:28:54 145.825 MHz
Oscar 10/S400 20 Sep 13:21:48 13:33:09 14° 150° (SSE) 13:42:11 145.825 - 145.975 CW/USB, Beacon 145.810 USB
Oscar 16 20 Sep 13:23:11 13:28:17 62° 73° (ENE) 13:33:26 437.025 USB, Beacon 2401.1428
AO-Echo 20 Sep 13:30:45 13:34:56 32° 69° (ENE) 13:39:05 ?
AO-7 20 Sep 13:45:12 13:46:18 10° 41° (NE) 13:47:25 29.400 - 29.500 MHz
Gurwin Techsat 1B 20 Sep 14:02:11 14:06:42 29° 67° (ENE) 14:11:13 435.225 FM
ITAMSAT 1 20 Sep 14:08:18 14:13:25 69° 73° (ENE) 14:18:34 435.822 SSB
Uribyol 2 20 Sep 14:12:14 14:17:24 79° 75° (ENE) 14:22:36 436.500 FM
Oscar 19 20 Sep 14:23:53 14:28:41 37° 262° (W) 14:33:30 437.125 CW, 437.150 USB
JAS-1B 20 Sep 14:24:45 14:33:27 79° 256° (WSW) 14:40:43 435.800 - 435.900 CW/SSB
RS-15 20 Sep 14:26:39 14:37:29 61° 246° (WSW) 14:48:48 29.354 - 29.394 USB, Beacon 29.352 USB
TMSAT-1 20 Sep 14:38:04 14:43:04 45° 70° (ENE) 14:48:05 436.925 FM
Sapphire 20 Sep 14:39:13 14:41:18 12° 322° (NW) 14:43:24 437.095 MHz 1200 baud AX-25 AFSK
AO-27 20 Sep 14:43:40 14:48:43 55° 259° (W) 14:53:49 436.795 MHz FM
Oscar 16 20 Sep 15:04:59 15:08:03 16° 269° (W) 15:11:07 437.025 USB, Beacon 2401.1428
AO-Echo 20 Sep 15:09:49 15:13:43 25° 265° (W) 15:17:37 ?
AO-7 20 Sep 15:29:14 15:37:02 47° 63° (ENE) 15:44:50 29.400 - 29.500 MHz
Gurwin Techsat 1B 20 Sep 15:41:43 15:46:32 35° 263° (W) 15:51:23 435.225 FM
ITAMSAT 1 20 Sep 15:50:47 15:53:23 14° 270° (W) 15:56:01 435.822 SSB
Uribyol 2 20 Sep 15:55:38 15:57:27 12° 271° (W) 15:59:17 436.500 FM
TMSAT-1 20 Sep 16:19:07 16:23:10 22° 267° (W) 16:27:16 436.925 FM
Uosat F 20 Sep 16:19:11 16:24:09 72° 74° (ENE) 16:29:09 435.120 FM
JAS-1B 20 Sep 16:20:42 16:24:38 14° 270° (W) 16:28:19 435.800 - 435.900 CW/SSB
Saudisat 1A 20 Sep 16:41:41 16:45:41 36° 115° (ESE) 16:49:43 436.775 MHz
MaSat-1 20 Sep 16:45:18 16:47:00 13° 46° (NE) 16:48:36 437.345 MHz
RS-15 20 Sep 16:45:43 16:47:27 10° 266° (W) 16:49:11 29.354 - 29.394 USB, Beacon 29.352 USB
Hamsat 20 Sep 16:51:44 16:54:13 15° 65° (ENE) 16:56:42 145.90 MHz
AO-7 20 Sep 17:22:14 17:29:52 40° 261° (W) 17:37:32 29.400 - 29.500 MHz
OPAL 20 Sep 17:24:26 17:29:21 43° 101° (E) 17:34:10 ?
JAS-2 20 Sep 17:41:08 17:46:17 59° 73° (ENE) 17:51:23 435.800 - 435.900 CW/SSB, 435.910 FM
Uosat F 20 Sep 18:01:23 18:03:26 12° 270° (W) 18:05:30 435.120 FM
MaSat-1 20 Sep 18:20:35 18:24:13 49° 250° (WSW) 18:27:19 437.345 MHz
Saudisat 1A 20 Sep 18:21:37 18:25:20 26° 313° (NW) 18:29:04 436.775 MHz
Hamsat 20 Sep 18:25:30 18:29:44 51° 261° (W) 18:34:00 145.90 MHz
KITSAT 1 20 Sep 18:56:19 19:03:57 48° 111° (ESE) 19:11:36 435.175 FM
OPAL 20 Sep 19:03:51 19:07:57 24° 298° (WNW) 19:11:59 ?
HO-68 20 Sep 19:06:25 19:09:44 14° 51° (NE) 19:13:03 435.675 MHz FM
SO-67 20 Sep 19:12:51 19:16:17 75° 77° (ENE) 19:19:45 435.3500 MHz FM
JAS-2 20 Sep 19:29:00 19:31:52 15° 269° (W) 19:34:44 435.800 - 435.900 CW/SSB, 435.910 FM
STRAND 1 20 Sep 19:45:33 19:50:42 72° 103° (ESE) 19:55:50 ?
Sapphire 20 Sep 19:57:24 20:00:57 17° 43° (NE) 20:04:29 437.095 MHz 1200 baud AX-25 AFSK
UKube-1 20 Sep 20:22:44 20:24:46 13° 62° (ENE) 20:26:48 145.840 MHz, 145.915 MHz
PCSat 20 Sep 20:23:42 20:28:19 27° 49° (NE) 20:32:54 145.825 MHz
HO-68 20 Sep 20:49:06 20:56:10 70° 70° (ENE) 21:03:17 435.675 MHz FM
KITSAT 1 20 Sep 20:51:52 20:59:26 42° 311° (NW) 21:07:03 435.175 FM
STRAND 1 20 Sep 21:26:28 21:29:17 15° 299° (WNW) 21:32:05 ?
FUNcube-1 20 Sep 21:32:18 21:35:38 21° 66° (ENE) 21:39:02 145.950 - 145.970 MHz USB
Oscar 11 20 Sep 21:38:13 21:42:30 59° 74° (ENE) 21:46:48 145.825 FM, Beacon 2401.500 USB
Sapphire 20 Sep 21:39:37 21:45:05 84° 243° (WSW) 21:50:30 437.095 MHz 1200 baud AX-25 AFSK
UKube-1 20 Sep 21:56:11 22:00:27 60° 259° (WSW) 22:04:45 145.840 MHz, 145.915 MHz
PCSat 20 Sep 22:06:45 22:11:55 46° 248° (WSW) 22:17:03 145.825 MHz
SO-50 20 Sep 22:27:59 22:32:28 89° 122° (ESE) 22:37:05 436.795 FM
HO-68 20 Sep 22:39:18 22:44:27 21° 268° (W) 22:49:38 435.675 MHz FM
KITSAT 1 20 Sep 22:53:27 22:57:24 14° 338° (NNW) 23:01:22 435.175 FM
FUNcube-1 20 Sep 23:07:42 23:11:46 36° 263° (W) 23:15:57 145.950 - 145.970 MHz USB
Oscar 11 20 Sep 23:17:18 23:19:03 12° 270° (W) 23:20:48 145.825 FM, Beacon 2401.500 USB
Sapphire 20 Sep 23:26:58 23:27:36 10° 259° (W) 23:28:14 437.095 MHz 1200 baud AX-25 AFSK
UOSAT-12 20 Sep 23:58:47 00:03:20 63° 119° (ESE) 00:07:59 437.025 FM, 437.400 FM
SO-50 21 Sep 00:11:13 00:13:43 14° 322° (NW) 00:16:14 436.795 FM
KITSAT 1 21 Sep 00:55:42 00:57:18 11° 10° (N) 00:58:54 435.175 FM
Saudisat 1A 21 Sep 01:08:31 01:12:23 29° 48° (NE) 01:16:14 436.775 MHz
